STARLINK-31589, 59654

Orbit data source: Space-Track

STARLINK-31589, 59654 is a payload satellite owned by SpaceX/Seattle (US) in LEO that was launched on Mon, 06 May 2024 UTC via an FALCON 9 launch vehicle from the Air Force Eastern Test Range (AFETR). Payload-class satellites include a variety of spacecraft equipped with specific instruments for various scientific and technological missions. These include communications satellites like Starlink; space stations such as the ISS; scientific satellites like the Hubble; Earth observation satellites from companies like Planet Labs, Umbra, and HawkEye 360; GPS; miniature CubeSats for education and research; and military/defense satellites.

Loading next visibility...
Identifier
59654, 2024-084A
Orbit
LEO
Country
Flag of USUS
Related business
Manufacturer
SpaceX/Seattle
Mission
Operational Commercial Communications
Bus & Motor
STARLINK V2M, Unknown motor
Mass
730 kg wet, ~700 kg dry
Launch date (UTC)
2024-05-06 (1 year ago)
Launch vehicle
FALCON 9
Launch site
Air Force Eastern Test Range (AFETR)
Object type
Payload
Rocket body
Debris
Shape & HBR
Box + 2 Pan, 17.7 m
Radar Cross Section
33.884 m², Large (>1 m²)

Expand to show TLE details & history
Last TLE update: 4 hours ago

TLE from 4 hours ago
0 STARLINK-31589
1 59654U 24084A   25288.65292360  .00004020  00000-0  15554-3 0  9994
2 59654  43.0031 140.7251 0001156 278.5846  81.4875 15.27575257 82217
Epoch: 2025-10-15T15:40Z
TLE epoch observation values (Epoch: 2025-10-15T15:40:12.599Z)
Latitude
0.00002°
Longitude
-118.75129°
Altitude
482.722 km
Speed
7.626 km/s
True Right ascension
09h 22m 54s
True Declination
0° 00' 00"
Sunlit
Object was in daylight at epoch
Visualization orbit readout
Latitude
Unknown
Longitude
Unknown
Altitude
Unknown
Speed
Unknown
Apparent Right ascension
Unknown
Apparent Declination
Unknown
Sunlit
N/A
Visualization observer readout
Local Sidereal Time
13:55:02
Azimuth
Unknown
Elevation
Unknown
Doppler factor
Unknown
Orbital elements
Apogee altitude
485.801 km
Perigee altitude
484.215 km
Semi-major axis
6,863.145 km
Eccentricity
0.00012
Inclination
43.0031°
RAAN
140.7251°
Arg. of periapsis
278.5846°
True anomaly
81.5006°
Mean anomaly
81.4875°
Eccentric anomaly
81.49405°
Mean motion
3.81732 °/min
Orbital period
94.31 mins
BSTAR
0.00015554
Loading maneuver chart data...
Computing Atmospheric mass density...
Loading historical data...
Loading historical data...
Loading historical data...
Loading historical data...
Loading historical data...
Loading historical data...
Loading historical data...

Documentation

Showing up to 5 results
|